[[{"header":{"parameterUnit":"m.s-1","parameterCategory":1,"la1":30.2991,"la2":30.254,"lo1":-89.0895,"lo2":-89.0444,"dy":0.0017,"dx":0.0017,"nx":28,"ny":28,"refTime":"2024-07-03T21:00:00:Z","depth":0,"parameterNumber":2,"parameterNumberName":"U-component_of_WINDS"},"data":[0,0,0,0,0,0,0,0,0,0,0,0,0,0,0,0,0,0,0,0,0,0,0,0,0,0,0,0,0,0,0,0,0,0,0,0,0,0,0,0,0,0,0,0,0,0,0,0,0,0,0,0,0,0,0,0,0,0,2.4898,2.4899,0,2.4975,2.4976,2.4977,2.4953,2.4951,2.495,2.4948,2.5026,2.503,2.5033,0,0,0,0,0,0,0,0,0,0,0,0,0,2.473,2.4733,2.4898,2.4899,2.49,2.4975,2.4976,2.4977,2.4953,2.4951,2.4949,2.4947,2.5025,2.5029,2.5033,0,0,0,0,0,0,0,0,0,0,0,0,0,2.4804,2.4734,2.4898,2.4897,2.4898,2.4975,2.4976,2.4977,2.4953,2.4951,2.4949,2.4946,2.5023,2.5029,2.5034,2.5116,0,0,2.505,2.5053,0,0,0,0,0,0,0,0,2.48,2.481,2.4897,2.4898,2.4898,2.4952,2.4945,2.5024,2.4954,2.4932,2.4948,2.4945,2.5003,2.501,2.503,2.5119,2.5123,2.5051,2.5054,2.5056,2.5058,0,0,0,0,0,0,0,2.4795,2.4807,2.4929,2.4898,2.4899,2.4892,2.49,2.496,2.4981,2.4934,2.4933,2.4942,2.5003,2.5025,2.5031,2.5124,2.5051,2.5056,2.5059,2.5061,2.5281,2.5284,0,0,0,0,0,0,2.4789,2.4803,2.4926,2.4931,2.4842,2.4898,2.4906,2.4937,2.498,2.4984,2.4944,2.4941,2.5017,2.5025,2.5034,2.513,2.5056,2.5061,2.5065,2.5278,2.5282,2.5284,0,0,0,0,0,0,2.4786,2.4801,2.4923,2.4866,2.4882,2.4903,2.4938,2.494,2.4961,2.4987,2.4991,2.4962,2.5015,2.5027,2.5095,2.5132,2.5064,2.5069,2.5275,2.5279,2.5283,2.5324,0,0,0,0,0,0,2.4781,2.4799,2.4831,2.4867,2.4885,2.4983,2.494,2.4943,2.4971,2.4967,2.5005,2.5009,2.5014,2.5087,2.51,2.5138,2.5073,2.5272,2.5277,2.5282,2.5319,2.5329,2.5337,0,0,0,0,0,2.4775,2.484,2.4833,2.4848,2.4925,2.4985,2.4995,2.5,2.4974,2.5005,2.5022,2.5008,2.5127,2.5094,2.5109,2.5149,2.527,2.5276,2.5281,2.5315,2.5327,2.5336,0,0,0,0,0,0,2.4808,2.4845,2.4837,2.4916,2.4948,2.4981,2.5021,2.5012,2.5052,2.5047,2.5051,2.5059,2.5129,2.5146,2.511,2.5229,2.5194,2.5203,2.5215,2.5226,2.5235,2.5228,2.5077,0,0,0,0,0,2.4825,2.4871,2.4901,2.4968,2.4984,2.5,2.5027,2.5027,2.506,2.5073,2.5095,2.5127,2.5171,2.52,2.5242,2.5322,2.5329,2.5357,2.5366,2.5373,2.538,2.5421,2.5433,2.5304,2.5304,2.5304,0,0,2.4859,2.4885,2.4914,2.4975,2.4999,2.5046,2.5011,2.5063,2.5097,2.5081,2.5146,2.5163,2.5199,2.5272,2.5306,2.5289,2.5417,2.5381,2.5386,2.5389,2.5428,2.544,2.5451,2.5308,2.5307,2.5306,0,0,2.4945,2.4971,2.5028,2.5053,2.509,2.51,2.5114,2.5148,2.5159,2.5224,2.5212,2.5253,2.533,2.5355,2.5378,2.5471,2.5459,2.5485,2.553,2.557,2.558,2.5589,2.5619,2.5631,2.5493,2.5493,2.5493,0,2.4983,2.5054,2.5058,2.511,2.5136,2.5123,2.5179,2.5204,2.5253,2.5271,2.5251,2.5346,2.5369,2.5447,2.547,2.549,2.5504,2.548,2.5578,2.5587,2.5596,2.5625,2.5637,2.5496,2.5495,2.5495,2.5495,0,2.5097,2.5146,2.5187,2.5234,2.5265,2.5319,2.533,2.5361,2.5359,2.5371,2.5436,2.5464,2.551,2.5529,2.5529,2.5607,2.5594,2.5577,2.5541,2.561,2.5638,2.5649,2.55,2.5499,2.5498,2.5497,0,0,2.5205,2.5253,2.5268,2.5288,2.5327,2.5365,2.5418,2.5463,2.5487,2.5522,2.5565,2.5629,2.5613,2.5639,2.564,2.5675,2.5744,2.5653,2.5654,2.5666,2.5828,2.5839,2.5852,2.5737,2.5739,2.5741,2.5824,0,2.5292,2.5385,2.5389,2.5473,2.5516,2.5505,2.555,2.5579,2.5591,2.5629,2.5643,2.5687,2.5664,2.5679,2.5713,2.5728,2.5776,2.5723,2.5775,2.5777,2.5763,2.5867,2.5879,2.5956,2.5835,2.5837,2.5838,0,2.5406,2.5442,2.553,2.5561,2.5579,2.562,2.566,2.5698,2.573,2.5736,2.5764,2.5761,2.5813,2.5777,2.5849,2.5812,2.5834,2.5845,2.5848,2.5851,2.581,2.5869,2.5981,2.5991,2.5856,2.5855,2.5853,0,2.5472,2.5543,2.5604,2.5622,2.5661,2.5689,2.5707,2.5736,2.5762,2.5797,2.5814,2.5855,2.5877,2.5909,2.5916,2.589,2.5986,2.5952,2.5991,2.5991,2.601,2.6008,2.6123,2.6029,2.6029,2.6028,2.6028,0,2.5567,2.562,2.5634,2.5671,2.573,2.5735,2.5792,2.5808,2.5834,2.5873,2.5866,2.5903,2.5911,2.5949,2.5955,2.6011,2.6022,2.6027,2.6028,2.6026,2.6025,2.6039,2.6032,2.6031,2.6031,2.603,2.603,0,2.5649,2.5661,2.5726,2.5757,2.5766,2.5808,2.5834,2.5869,2.588,2.5929,2.5941,2.5959,2.6003,2.6013,2.6067,2.607,2.6136,2.6133,2.6125,2.6124,2.6161,2.6156,2.6287,2.6303,2.6201,2.6202,2.6202,0,2.5708,2.5748,2.5783,2.5808,2.5826,2.5868,2.5894,2.59,2.5927,2.5965,2.5995,2.6039,2.6073,2.6144,2.6161,2.6201,2.6197,2.624,2.6203,2.6199,2.6194,2.619,2.6193,2.6246,2.6247,2.6248,2.6249,0,2.5808,2.5812,2.585,2.5889,2.592,2.5952,2.5982,2.6003,2.6013,2.6044,2.6088,2.6115,2.6169,2.6211,2.6251,2.6268,2.6259,2.6261,2.6271,2.6269,2.6261,2.6263,2.6141,2.6257,2.6256,2.6256,2.6255,2.6255,2.5879,2.5913,2.5942,2.5983,2.6007,2.6034,2.6068,2.6083,2.612,2.6163,2.6165,2.6213,2.6242,2.6294,2.6314,2.6351,2.6337,2.6354,2.6357,2.636,2.6362,2.6258,2.6359,2.6358,2.6358,2.6358,2.6358,0,2.5976,2.5994,2.6033,2.6074,2.6106,2.6096,2.6129,2.6156,2.6198,2.6226,2.626,2.631,2.635,2.637,2.641,2.6436,2.6433,2.6446,2.6442,2.6446,2.6373,2.6358,2.6447,2.6447,2.6447,2.6447,2.6447,2.6447,2.6031,2.6087,2.6094,2.6161,2.6178,2.6225,2.6244,2.6269,2.629,2.6346,2.638,2.6393,2.6417,2.6458,2.6494,2.6499,2.6512,2.6527,2.6529,2.6461,2.6451,2.6443,2.6429,2.653,2.6531,2.6598,2.6599,2.66]},{"header":{"parameterUnit":"m.s-1","parameterCategory":1,"la1":30.2991,"la2":30.254,"lo1":-89.0895,"lo2":-89.0444,"dy":0.0017,"dx":0.0017,"nx":28,"ny":28,"refTime":"2024-07-03T21:00:00:Z","depth":0,"parameterNumber":3,"parameterNumberName":"V-component_of_WINDS"},"data":[0,0,0,0,0,0,0,0,0,0,0,0,0,0,0,0,0,0,0,0,0,0,0,0,0,0,0,0,0,0,0,0,0,0,0,0,0,0,0,0,0,0,0,0,0,0,0,0,0,0,0,0,0,0,0,0,0,0,2.125,2.1251,0,2.1381,2.1383,2.1384,2.1376,2.1374,2.1372,2.137,2.1503,2.1508,2.1514,0,0,0,0,0,0,0,0,0,0,0,0,0,2.0989,2.0994,2.125,2.1251,2.1253,2.1381,2.1383,2.1385,2.1376,2.1374,2.1371,2.1369,2.1502,2.1508,2.1514,0,0,0,0,0,0,0,0,0,0,0,0,0,2.111,2.0995,2.1249,2.1264,2.1267,2.1381,2.1383,2.1385,2.1376,2.1374,2.1371,2.1368,2.1499,2.1507,2.1515,2.1623,0,0,2.154,2.1543,0,0,0,0,0,0,0,0,2.1103,2.1119,2.126,2.1263,2.1266,2.1359,2.134,2.1465,2.1377,2.1335,2.137,2.1366,2.1458,2.1469,2.15,2.1629,2.1635,2.154,2.1545,2.1549,2.1551,0,0,0,0,0,0,0,2.1094,2.1113,2.1302,2.1262,2.1266,2.1263,2.1277,2.1364,2.1411,2.1338,2.1338,2.1354,2.1459,2.1492,2.1503,2.1637,2.154,2.1547,2.1552,2.1555,2.186,2.1863,0,0,0,0,0,0,2.1083,2.1106,2.1298,2.1306,2.1176,2.1271,2.1286,2.1332,2.141,2.1419,2.1356,2.1353,2.148,2.1494,2.1508,2.1638,2.1549,2.1556,2.1561,2.1856,2.186,2.1864,0,0,0,0,0,0,2.1077,2.11,2.1292,2.1206,2.123,2.1278,2.133,2.1336,2.137,2.1423,2.1431,2.1382,2.1478,2.1496,2.1594,2.1643,2.156,2.1567,2.1852,2.1858,2.1862,2.1901,0,0,0,0,0,0,2.107,2.1098,2.114,2.1207,2.1235,2.1377,2.1333,2.1341,2.1384,2.1381,2.145,2.1458,2.1477,2.1582,2.1602,2.1652,2.1573,2.1848,2.1855,2.186,2.1895,2.1906,2.1916,0,0,0,0,0,2.1061,2.1146,2.1142,2.1165,2.1289,2.138,2.1396,2.1417,2.1388,2.143,2.1464,2.1456,2.1634,2.1592,2.1615,2.1668,2.1845,2.1853,2.186,2.1891,2.1904,2.1915,0,0,0,0,0,0,2.1083,2.1155,2.1152,2.1261,2.1315,2.1379,2.1433,2.1431,2.1493,2.1488,2.151,2.1526,2.1624,2.1656,2.1608,2.1776,2.1736,2.1748,2.1751,2.1765,2.1775,2.1765,2.158,0,0,0,0,0,2.1101,2.117,2.1228,2.1319,2.1346,2.1385,2.1426,2.1437,2.1493,2.1515,2.1557,2.1611,2.1679,2.1724,2.1789,2.1899,2.1914,2.1947,2.1957,2.1965,2.1976,2.2036,2.2051,2.1888,2.1888,2.1888,0,0,2.1138,2.1186,2.1228,2.1325,2.1368,2.1438,2.1404,2.148,2.1532,2.1527,2.1622,2.1654,2.1716,2.182,2.1868,2.185,2.2024,2.1975,2.1981,2.1987,2.2045,2.206,2.2074,2.1893,2.1892,2.1891,0,0,2.1242,2.1285,2.1365,2.1409,2.1474,2.1499,2.1518,2.1582,2.1603,2.1699,2.1696,2.1758,2.1875,2.1919,2.1957,2.2076,2.207,2.2097,2.215,2.2208,2.2221,2.2232,2.2275,2.2289,2.2107,2.2107,2.2107,0,2.128,2.1386,2.1406,2.1483,2.1525,2.1524,2.1605,2.1646,2.1729,2.1758,2.1736,2.1882,2.1924,2.2038,2.2067,2.2098,2.212,2.2089,2.2218,2.2229,2.224,2.2281,2.2296,2.2109,2.2109,2.2109,2.2109,0,2.1429,2.1503,2.156,2.164,2.1689,2.1767,2.1799,2.1845,2.1852,2.1879,2.1975,2.2025,2.2101,2.2128,2.2136,2.2244,2.223,2.2213,2.2173,2.2258,2.2297,2.2312,2.2113,2.2112,2.2112,2.2111,0,0,2.1552,2.1642,2.1662,2.1699,2.177,2.1827,2.1904,2.1978,2.2018,2.2075,2.214,2.2239,2.2223,2.2265,2.2277,2.2328,2.2419,2.2305,2.2306,2.2324,2.254,2.2553,2.257,2.2415,2.2418,2.2421,2.2535,0,2.1663,2.1801,2.1821,2.1943,2.2011,2.2009,2.2077,2.2127,2.2154,2.2215,2.2245,2.2314,2.2288,2.2314,2.2364,2.2397,2.2462,2.2389,2.2476,2.2478,2.246,2.259,2.2604,2.271,2.255,2.2552,2.2554,0,2.1811,2.1872,2.2001,2.2062,2.2091,2.2152,2.222,2.2279,2.2336,2.2351,2.2399,2.2404,2.2484,2.244,2.255,2.2499,2.2536,2.2557,2.2562,2.2571,2.2522,2.2603,2.2744,2.2759,2.2578,2.2576,2.2574,0,2.1887,2.2001,2.2093,2.2124,2.2198,2.224,2.2273,2.2327,2.237,2.2429,2.2457,2.2525,2.2563,2.2615,2.2638,2.2605,2.2746,2.2705,2.2761,2.276,2.2791,2.2789,2.294,2.2814,2.2814,2.2814,2.2813,0,2.2009,2.2088,2.2128,2.2184,2.2272,2.2294,2.238,2.2411,2.2459,2.252,2.2523,2.2581,2.2608,2.267,2.2688,2.2775,2.2792,2.2807,2.2811,2.2807,2.2805,2.2831,2.2824,2.2818,2.2817,2.2816,2.2815,0,2.2109,2.2139,2.2239,2.23,2.2318,2.238,2.2432,2.2486,2.2512,2.259,2.2609,2.265,2.2723,2.2751,2.2839,2.2852,2.2952,2.2951,2.2933,2.2935,2.2989,2.2983,2.3162,2.3186,2.3045,2.3046,2.3047,0,2.2185,2.2245,2.2313,2.2355,2.2389,2.2456,2.25,2.2523,2.2568,2.2637,2.2682,2.2755,2.2814,2.293,2.2967,2.3034,2.3034,2.3092,2.3044,2.3038,2.3035,2.3031,2.3037,2.3101,2.3102,2.3103,2.3104,0,2.2316,2.2328,2.2391,2.2459,2.2511,2.2566,2.262,2.2653,2.2684,2.2735,2.2809,2.2855,2.2945,2.3017,2.3086,2.3119,2.3117,2.3119,2.3135,2.3132,2.3119,2.3127,2.2957,2.3115,2.3114,2.3113,2.3112,2.3112,2.2406,2.246,2.2516,2.2586,2.2628,2.2678,2.2731,2.2764,2.2826,2.2902,2.2912,2.2991,2.3045,2.3138,2.3173,2.3235,2.322,2.3244,2.325,2.3256,2.3259,2.3109,2.3248,2.3248,2.3248,2.3247,2.3247,0,2.2538,2.2573,2.2637,2.2712,2.2767,2.276,2.2818,2.2864,2.2934,2.2985,2.3043,2.3128,2.3197,2.324,2.3309,2.335,2.3351,2.3368,2.3365,2.3372,2.3269,2.3248,2.3366,2.3366,2.3366,2.3366,2.3366,2.3366,2.2612,2.2702,2.272,2.2831,2.2866,2.2944,2.2978,2.3023,2.3064,2.3159,2.3216,2.3243,2.3291,2.3363,2.3426,2.3436,2.3462,2.348,2.3489,2.3392,2.338,2.3368,2.3348,2.3485,2.3485,2.3587,2.3588,2.3588]}]]